Tracking 19575 objects as of 18-Feb-2019
HD Live streaming from Space Station
objects crossing your sky now

COSMOS 1477

Track COSMOS 1477 now!
10-day predictions
COSMOS 1477 is classified as:


NORAD ID: 14175
Int'l Code: 1983-069E
Perigee: 1,467.7 km
Apogee: 1,472.1 km
Inclination: 74.0 °
Period: 115.2 minutes
Semi major axis: 7840 km
RCS: 0.6791 m2 (medium)
Launch date: July 6, 1983
Source: Commonwealth of Independent States (former USSR) (CIS)
Launch site: PLESETSK MISSILE AND SPACE COMPLEX (PKMTR)
aabbcc
Your satellite tracking list
Your tracking list is empty




NASA's NSSDC Master Catalog

Two Line Element Set (TLE):
1 14175U 83069E   19048.94965352 +.00000013 +00000-0 +18683-3 0  9992
2 14175 074.0241 274.9437 0002749 237.7904 226.8782 12.50413502626055
Source of the keplerian elements: AFSPC